Time,TemperatureF,DewpointF,PressureIn,WindDirection,WindDirectionDegrees,WindSpeedMPH,WindSpeedGustMPH,Humidity,HourlyPrecipIn,Conditions,Clouds,dailyrainin,SoftwareType,DateUTC
2013-02-22 00:00:00,41.7,40.9,29.83,SSE,155,7.0,9.0,97,0.00,,,-99.99,Weather View 32 v70,2013-02-22 08:00:00,
2013-02-22 00:07:00,41.6,40.8,29.83,SSE,161,5.0,9.0,97,0.00,,,-99.99,Weather View 32 v70,2013-02-22 08:07:00,
2013-02-22 00:15:00,41.5,40.7,29.83,South,182,3.0,9.0,97,0.00,,,-99.99,Weather View 32 v70,2013-02-22 08:15:00,
2013-02-22 00:25:00,41.2,40.4,29.83,SSW,197,8.0,9.0,97,0.00,,,-99.99,Weather View 32 v70,2013-02-22 08:25:00,
2013-02-22 00:35:00,41.2,40.4,29.83,SSE,167,4.0,9.0,97,0.00,,,-99.99,Weather View 32 v70,2013-02-22 08:35:00,
2013-02-22 00:40:00,41.2,40.4,29.83,SSE,167,4.0,9.0,97,0.00,,,-99.99,Weather View 32 v70,2013-02-22 08:40:00,
2013-02-22 00:50:00,41.2,40.4,29.82,SSE,168,5.0,9.0,97,0.00,,,-99.99,Weather View 32 v70,2013-02-22 08:50:00,
2013-02-22 00:55:00,41.2,40.4,29.82,South,180,4.0,9.0,97,0.00,,,-99.99,Weather View 32 v70,2013-02-22 08:55:00,
2013-02-22 01:05:00,41.2,40.4,29.82,South,180,5.0,9.0,97,0.00,,,-99.99,Weather View 32 v70,2013-02-22 09:05:00,
2013-02-22 01:10:00,41.3,40.5,29.82,South,171,2.0,9.0,97,0.00,,,-99.99,Weather View 32 v70,2013-02-22 09:10:00,
2013-02-22 01:15:00,41.3,40.5,29.82,ESE,105,7.0,9.0,97,0.00,,,-99.99,Weather View 32 v70,2013-02-22 09:15:00,
2013-02-22 01:20:00,41.3,40.5,29.82,SE,145,6.0,9.0,97,0.00,,,-99.99,Weather View 32 v70,2013-02-22 09:20:00,
2013-02-22 01:30:00,41.5,40.4,29.81,SE,144,4.0,8.0,96,0.00,,,-99.99,Weather View 32 v70,2013-02-22 09:30:00,
2013-02-22 01:40:00,41.6,40.3,29.80,SSE,152,4.0,8.0,95,0.00,,,-99.99,Weather View 32 v70,2013-02-22 09:40:00,
2013-02-22 01:45:00,41.6,40.3,29.80,SE,138,4.0,8.0,95,0.00,,,-99.99,Weather View 32 v70,2013-02-22 09:45:00,
2013-02-22 01:55:00,41.5,40.2,29.79,East,99,5.0,8.0,95,0.00,,,-99.99,Weather View 32 v70,2013-02-22 09:55:00,
2013-02-22 02:05:00,41.5,40.2,29.79,ESE,113,7.0,9.0,95,0.00,,,-99.99,Weather View 32 v70,2013-02-22 10:05:00,
2013-02-22 02:10:00,41.4,40.1,29.79,SE,136,5.0,9.0,95,0.00,,,-99.99,Weather View 32 v70,2013-02-22 10:10:00,
2013-02-22 02:20:00,41.6,40.3,29.79,SE,129,2.0,9.0,95,0.00,,,-99.99,Weather View 32 v70,2013-02-22 10:20:00,
2013-02-22 02:30:00,41.9,40.8,29.78,ESE,122,8.0,10.0,96,0.00,,,-99.99,Weather View 32 v70,2013-02-22 10:30:00,
2013-02-22 02:40:00,42.2,40.9,29.78,SE,124,8.0,11.0,95,0.00,,,-99.99,Weather View 32 v70,2013-02-22 10:40:00,
2013-02-22 02:45:00,42.3,40.7,29.77,East,85,7.0,11.0,94,0.00,,,-99.99,Weather View 32 v70,2013-02-22 10:45:00,
2013-02-22 02:55:00,42.6,41.0,29.76,East,93,7.0,14.0,94,0.00,,,-99.99,Weather View 32 v70,2013-02-22 10:55:00,
2013-02-22 03:05:00,42.6,40.4,29.76,ESE,115,10.0,14.0,92,0.00,,,-99.99,Weather View 32 v70,2013-02-22 11:05:00,
2013-02-22 03:10:00,42.6,40.2,29.75,East,90,8.0,14.0,91,0.00,,,-99.99,Weather View 32 v70,2013-02-22 11:10:00,
2013-02-22 03:20:00,42.5,40.1,29.73,SE,142,9.0,14.0,91,0.00,,,-99.99,Weather View 32 v70,2013-02-22 11:20:00,
2013-02-22 03:25:00,42.5,39.8,29.73,SSE,167,10.0,14.0,90,0.00,,,-99.99,Weather View 32 v70,2013-02-22 11:25:00,
2013-02-22 03:35:00,42.3,39.6,29.73,SSE,158,9.0,19.0,90,0.00,,,-99.99,Weather View 32 v70,2013-02-22 11:35:00,
2013-02-22 03:45:00,42.2,39.8,29.71,South,171,14.0,20.0,91,0.00,,,-99.99,Weather View 32 v70,2013-02-22 11:45:00,
2013-02-22 03:50:00,42.2,39.5,29.72,SSE,152,10.0,20.0,90,0.00,,,-99.99,Weather View 32 v70,2013-02-22 11:50:00,
2013-02-22 04:00:00,42.3,39.6,29.72,South,189,16.0,20.0,90,0.00,,,-99.99,Weather View 32 v70,2013-02-22 12:00:00,
2013-02-22 04:09:00,42.2,39.5,29.73,South,186,15.0,21.0,90,0.00,,,-99.99,Weather View 32 v70,2013-02-22 12:09:00,
2013-02-22 04:15:00,42.2,39.2,29.71,South,179,11.0,22.0,89,0.00,,,-99.99,Weather View 32 v70,2013-02-22 12:15:00,
2013-02-22 04:25:00,42.0,39.3,29.70,South,169,16.0,22.0,90,0.00,,,-99.99,Weather View 32 v70,2013-02-22 12:25:00,
2013-02-22 04:30:00,42.0,39.3,29.70,South,169,13.0,22.0,90,0.00,,,-99.99,Weather View 32 v70,2013-02-22 12:30:00,
2013-02-22 04:40:00,42.0,39.0,29.69,SSE,165,14.0,22.0,89,0.00,,,-99.99,Weather View 32 v70,2013-02-22 12:40:00,
2013-02-22 04:50:00,42.2,38.9,29.67,SSE,165,12.0,22.0,88,0.00,,,-99.99,Weather View 32 v70,2013-02-22 12:50:00,
2013-02-22 05:00:00,42.3,38.7,29.67,SE,139,13.0,22.0,87,0.00,,,-99.99,Weather View 32 v70,2013-02-22 13:00:00,
2013-02-22 05:05:00,42.5,-3.4,29.66,SSE,158,13.0,22.0,14,0.00,,,-99.99,Weather View 32 v70,2013-02-22 13:05:00,
2013-02-22 05:15:00,42.6,39.6,29.64,South,175,14.0,25.0,89,0.00,,,-99.99,Weather View 32 v70,2013-02-22 13:15:00,
2013-02-22 05:20:00,42.6,-3.3,29.64,South,173,17.0,26.0,14,0.00,,,-99.99,Weather View 32 v70,2013-02-22 13:20:00,
2013-02-22 05:30:00,42.7,39.4,29.64,SSE,148,13.0,26.0,88,0.00,,,-99.99,Weather View 32 v70,2013-02-22 13:30:00,
2013-02-22 05:35:00,42.7,39.7,29.63,SSE,160,13.0,26.0,89,0.00,,,-99.99,Weather View 32 v70,2013-02-22 13:35:00,
2013-02-22 05:40:00,42.9,39.6,29.63,SE,140,13.0,26.0,88,0.00,,,-99.99,Weather View 32 v70,2013-02-22 13:40:00,
2013-02-22 05:45:00,42.9,39.6,29.63,ESE,109,18.0,26.0,88,0.00,,,-99.99,Weather View 32 v70,2013-02-22 13:45:00,
2013-02-22 05:55:00,43.0,39.4,29.63,SSE,162,12.0,26.0,87,0.00,,,-99.99,Weather View 32 v70,2013-02-22 13:55:00,
2013-02-22 06:05:00,43.0,39.4,29.60,South,169,13.0,26.0,87,0.00,,,-99.99,Weather View 32 v70,2013-02-22 14:05:00,
2013-02-22 06:10:00,43.2,-4.4,29.60,South,181,12.0,26.0,13,0.00,,,-99.99,Weather View 32 v70,2013-02-22 14:10:00,
2013-02-22 06:20:00,43.3,39.7,29.58,SSE,163,16.0,24.0,87,0.00,,,-99.99,Weather View 32 v70,2013-02-22 14:20:00,
2013-02-22 06:25:00,43.3,39.4,29.58,South,179,21.0,24.0,86,0.00,,,-99.99,Weather View 32 v70,2013-02-22 14:25:00,
2013-02-22 06:30:00,43.3,39.1,29.57,South,182,17.0,26.0,85,0.00,,,-99.99,Weather View 32 v70,2013-02-22 14:30:00,
2013-02-22 06:40:00,43.3,39.7,29.57,SSE,152,14.0,26.0,87,0.00,,,-99.99,Weather View 32 v70,2013-02-22 14:40:00,
2013-02-22 06:45:00,43.3,39.7,29.56,South,179,25.0,26.0,87,0.00,,,-99.99,Weather View 32 v70,2013-02-22 14:45:00,
2013-02-22 06:55:00,43.5,39.9,29.56,SSE,150,22.0,26.0,87,0.00,,,-99.99,Weather View 32 v70,2013-02-22 14:55:00,
2013-02-22 07:00:00,43.6,40.0,29.57,South,169,19.0,28.0,87,0.00,,,-99.99,Weather View 32 v70,2013-02-22 15:00:00,
2013-02-22 07:10:00,43.5,40.2,29.57,SSE,153,15.0,29.0,88,0.00,,,-99.99,Weather View 32 v70,2013-02-22 15:10:00,
2013-02-22 07:15:00,43.3,40.3,29.57,SSE,162,21.0,31.0,89,0.00,,,-99.99,Weather View 32 v70,2013-02-22 15:15:00,
2013-02-22 07:25:00,43.4,40.7,29.57,SE,144,14.0,31.0,90,0.00,,,-99.99,Weather View 32 v70,2013-02-22 15:25:00,
2013-02-22 07:30:00,43.5,40.8,29.56,South,178,17.0,31.0,90,0.00,,,-99.99,Weather View 32 v70,2013-02-22 15:30:00,
2013-02-22 07:40:00,43.5,40.8,29.58,South,172,16.0,31.0,90,0.00,,,-99.99,Weather View 32 v70,2013-02-22 15:40:00,
2013-02-22 07:50:00,43.6,40.9,29.58,South,170,12.0,31.0,90,0.00,,,-99.99,Weather View 32 v70,2013-02-22 15:50:00,
2013-02-22 07:55:00,43.6,40.9,29.58,South,186,18.0,31.0,90,0.00,,,-99.99,Weather View 32 v70,2013-02-22 15:55:00,
2013-02-22 08:05:00,43.6,40.9,29.58,South,184,13.0,31.0,90,0.00,,,-99.99,Weather View 32 v70,2013-02-22 16:05:00,
2013-02-22 08:10:00,43.6,40.9,29.57,South,174,17.0,31.0,90,0.00,,,-99.99,Weather View 32 v70,2013-02-22 16:10:00,
2013-02-22 08:20:00,43.5,41.0,29.55,South,184,11.0,29.0,91,0.00,,,-99.99,Weather View 32 v70,2013-02-22 16:20:00,
2013-02-22 08:25:00,43.5,40.8,29.54,South,171,16.0,29.0,90,0.00,,,-99.99,Weather View 32 v70,2013-02-22 16:25:00,
2013-02-22 08:35:00,43.5,41.0,29.53,SSW,195,17.0,29.0,91,0.00,,,-99.99,Weather View 32 v70,2013-02-22 16:35:00,
2013-02-22 08:40:00,43.3,40.6,29.53,South,179,17.0,29.0,90,0.00,,,-99.99,Weather View 32 v70,2013-02-22 16:40:00,
2013-02-22 08:50:00,43.5,40.8,29.54,SSE,161,17.0,24.0,90,0.00,,,-99.99,Weather View 32 v70,2013-02-22 16:50:00,
2013-02-22 09:00:00,43.4,-4.2,29.54,SSW,198,20.0,24.0,13,0.00,,,-99.99,Weather View 32 v70,2013-02-22 17:00:00,
2013-02-22 09:05:00,43.4,40.7,29.55,South,173,13.0,24.0,90,0.00,,,-99.99,Weather View 32 v70,2013-02-22 17:05:00,
2013-02-22 09:12:00,43.5,41.0,29.54,South,173,14.0,24.0,91,0.00,,,-99.99,Weather View 32 v70,2013-02-22 17:12:00,
2013-02-22 09:20:00,43.3,40.8,29.53,South,175,10.0,24.0,91,0.00,,,-99.99,Weather View 32 v70,2013-02-22 17:20:00,
2013-02-22 09:25:00,43.3,40.6,29.53,SSE,148,10.0,24.0,90,0.00,,,-99.99,Weather View 32 v70,2013-02-22 17:25:00,
2013-02-22 09:35:00,43.5,40.8,29.54,SSE,150,7.0,24.0,90,0.00,,,-99.99,Weather View 32 v70,2013-02-22 17:35:00,
2013-02-22 09:45:00,43.3,40.8,29.53,East,98,9.0,24.0,91,0.00,,,-99.99,Weather View 32 v70,2013-02-22 17:45:00,
2013-02-22 09:50:00,43.3,40.8,29.52,SE,131,13.0,24.0,91,0.00,,,-99.99,Weather View 32 v70,2013-02-22 17:50:00,
2013-02-22 10:00:00,42.9,41.0,29.52,SE,132,11.0,23.0,93,0.00,,,-99.99,Weather View 32 v70,2013-02-22 18:00:00,
2013-02-22 10:05:00,43.0,41.1,29.52,ESE,107,5.0,21.0,93,0.00,,,-99.99,Weather View 32 v70,2013-02-22 18:05:00,
2013-02-22 10:12:00,43.0,41.4,29.53,SSE,164,11.0,21.0,94,0.00,,,-99.99,Weather View 32 v70,2013-02-22 18:12:00,
2013-02-22 10:20:00,43.0,40.8,29.53,SE,144,13.0,20.0,92,0.00,,,-99.99,Weather View 32 v70,2013-02-22 18:20:00,
2013-02-22 10:30:00,43.2,41.3,29.51,SE,137,15.0,20.0,93,0.00,,,-99.99,Weather View 32 v70,2013-02-22 18:30:00,
2013-02-22 10:40:00,43.0,41.1,29.50,ENE,78,16.0,20.0,93,0.00,,,-99.99,Weather View 32 v70,2013-02-22 18:40:00,
2013-02-22 10:45:00,42.9,41.3,29.48,ESE,109,23.0,26.0,94,0.00,,,-99.99,Weather View 32 v70,2013-02-22 18:45:00,
2013-02-22 10:55:00,42.7,40.8,29.48,SSE,149,14.0,26.0,93,0.00,,,-99.99,Weather View 32 v70,2013-02-22 18:55:00,
2013-02-22 11:00:00,42.7,41.1,29.48,ESE,104,17.0,26.0,94,0.00,,,-99.99,Weather View 32 v70,2013-02-22 19:00:00,
2013-02-22 11:10:00,43.0,40.8,29.47,SSE,150,13.0,26.0,92,0.00,,,-99.99,Weather View 32 v70,2013-02-22 19:10:00,
2013-02-22 11:15:00,42.6,40.4,29.48,SE,146,14.0,26.0,92,0.00,,,-99.99,Weather View 32 v70,2013-02-22 19:15:00,
2013-02-22 11:25:00,42.7,40.5,29.48,SE,125,15.0,26.0,92,0.00,,,-99.99,Weather View 32 v70,2013-02-22 19:25:00,
2013-02-22 11:35:00,42.4,40.2,29.48,SSE,148,17.0,26.0,92,0.00,,,-99.99,Weather View 32 v70,2013-02-22 19:35:00,
2013-02-22 11:40:00,42.2,39.8,29.48,SE,144,16.0,31.0,91,0.00,,,-99.99,Weather View 32 v70,2013-02-22 19:40:00,
2013-02-22 11:50:00,41.9,39.7,29.49,SSE,154,19.0,31.0,92,0.00,,,-99.99,Weather View 32 v70,2013-02-22 19:50:00,
2013-02-22 11:55:00,41.9,39.7,29.50,South,173,13.0,31.0,92,0.00,,,-99.99,Weather View 32 v70,2013-02-22 19:55:00,
2013-02-22 12:05:00,42.0,39.8,29.50,SSE,156,16.0,31.0,92,0.00,,,-99.99,Weather View 32 v70,2013-02-22 20:05:00,
2013-02-22 12:13:00,42.2,40.0,29.49,South,178,13.0,31.0,92,0.00,,,-99.99,Weather View 32 v70,2013-02-22 20:13:00,
2013-02-22 12:20:00,42.4,40.2,29.48,SSE,154,13.0,31.0,92,0.00,,,-99.99,Weather View 32 v70,2013-02-22 20:20:00,
2013-02-22 12:30:00,42.9,41.0,29.48,SSE,166,13.0,31.0,93,0.00,,,-99.99,Weather View 32 v70,2013-02-22 20:30:00,
2013-02-22 12:40:00,43.2,41.0,29.47,SE,142,12.0,24.0,92,0.00,,,-99.99,Weather View 32 v70,2013-02-22 20:40:00,
2013-02-22 12:45:00,43.3,41.1,29.46,SSE,161,13.0,22.0,92,0.00,,,-99.99,Weather View 32 v70,2013-02-22 20:45:00,
2013-02-22 12:55:00,43.6,41.7,29.46,SSE,162,11.0,22.0,93,0.00,,,-99.99,Weather View 32 v70,2013-02-22 20:55:00,
2013-02-22 13:05:00,43.9,42.0,29.46,SSE,162,9.0,22.0,93,0.00,,,-99.99,Weather View 32 v70,2013-02-22 21:05:00,
2013-02-22 13:10:00,44.0,41.8,29.45,South,170,10.0,21.0,92,0.00,,,-99.99,Weather View 32 v70,2013-02-22 21:10:00,
2013-02-22 13:15:00,44.0,42.1,29.45,SSE,164,12.0,21.0,93,0.00,,,-99.99,Weather View 32 v70,2013-02-22 21:15:00,
2013-02-22 13:25:00,44.0,42.4,29.45,SSE,163,10.0,21.0,94,0.00,,,-99.99,Weather View 32 v70,2013-02-22 21:25:00,
2013-02-22 13:35:00,44.0,42.4,29.45,South,174,10.0,20.0,94,0.00,,,-99.99,Weather View 32 v70,2013-02-22 21:35:00,
2013-02-22 13:45:00,44.3,42.7,29.46,SSE,162,10.0,17.0,94,0.00,,,-99.99,Weather View 32 v70,2013-02-22 21:45:00,
2013-02-22 13:50:00,44.3,42.7,29.46,South,171,9.0,17.0,94,0.00,,,-99.99,Weather View 32 v70,2013-02-22 21:50:00,
2013-02-22 14:00:00,44.5,-15.9,29.46,SE,140,8.0,15.0,7,0.00,,,-99.99,Weather View 32 v70,2013-02-22 22:00:00,
2013-02-22 14:10:00,44.9,43.6,29.45,ESE,121,11.0,15.0,95,0.00,,,-99.99,Weather View 32 v70,2013-02-22 22:10:00,
2013-02-22 14:15:00,44.9,43.3,29.45,East,95,5.0,15.0,94,0.00,,,-99.99,Weather View 32 v70,2013-02-22 22:15:00,
2013-02-22 14:25:00,45.4,43.8,29.46,ENE,68,8.0,15.0,94,0.00,,,-99.99,Weather View 32 v70,2013-02-22 22:25:00,
2013-02-22 14:35:00,45.4,43.8,29.47,East,83,6.0,15.0,94,0.00,,,-99.99,Weather View 32 v70,2013-02-22 22:35:00,
2013-02-22 14:45:00,45.2,43.6,29.47,East,81,6.0,14.0,94,0.00,,,-99.99,Weather View 32 v70,2013-02-22 22:45:00,
2013-02-22 14:50:00,45.1,43.2,29.47,ENE,72,6.0,12.0,93,0.00,,,-99.99,Weather View 32 v70,2013-02-22 22:50:00,
2013-02-22 15:00:00,44.7,43.1,29.48,East,86,7.0,12.0,94,0.00,,,-99.99,Weather View 32 v70,2013-02-22 23:00:00,
2013-02-22 15:10:00,44.5,42.9,29.48,East,90,6.0,11.0,94,0.00,,,-99.99,Weather View 32 v70,2013-02-22 23:10:00,
2013-02-22 15:15:00,44.4,43.1,29.50,WNW,288,3.0,12.0,95,0.00,,,-99.99,Weather View 32 v70,2013-02-22 23:15:00,
2013-02-22 15:25:00,43.2,41.0,29.49,NW,318,4.0,12.0,92,0.00,,,-99.99,Weather View 32 v70,2013-02-22 23:25:00,
2013-02-22 15:35:00,43.0,41.1,29.49,WSW,239,3.0,12.0,93,0.00,,,-99.99,Weather View 32 v70,2013-02-22 23:35:00,
2013-02-22 15:40:00,43.3,41.4,29.48,NW,314,6.0,13.0,93,0.00,,,-99.99,Weather View 32 v70,2013-02-22 23:40:00,
2013-02-22 15:50:00,43.3,40.6,29.48,WNW,296,21.0,22.0,90,0.00,,,-99.99,Weather View 32 v70,2013-02-22 23:50:00,
2013-02-22 16:00:00,43.2,40.5,29.48,NW,313,10.0,26.0,90,0.02,,,-99.99,Weather View 32 v70,2013-02-23 00:00:00,
2013-02-22 16:05:00,43.0,40.5,29.48,NW,308,9.0,26.0,91,0.02,,,-99.99,Weather View 32 v70,2013-02-23 00:05:00,
2013-02-22 16:15:00,43.2,39.6,29.48,NW,319,10.0,27.0,87,0.02,,,-99.99,Weather View 32 v70,2013-02-23 00:15:00,
2013-02-22 16:25:00,43.6,38.1,29.48,NW,324,11.0,27.0,81,0.02,,,-99.99,Weather View 32 v70,2013-02-23 00:25:00,
2013-02-22 16:30:00,43.7,37.9,29.48,WNW,295,9.0,27.0,80,0.02,,,-99.99,Weather View 32 v70,2013-02-23 00:30:00,
2013-02-22 16:40:00,44.2,37.4,29.46,West,279,19.0,27.0,77,0.02,,,-99.99,Weather View 32 v70,2013-02-23 00:40:00,
2013-02-22 16:50:00,43.8,37.4,29.46,WNW,290,14.0,27.0,78,0.03,,,-99.99,Weather View 32 v70,2013-02-23 00:50:00,
2013-02-22 16:55:00,43.8,36.4,29.46,WNW,284,12.0,27.0,75,0.01,,,-99.99,Weather View 32 v70,2013-02-23 00:55:00,
2013-02-22 17:05:00,43.6,35.5,29.45,WNW,294,17.0,28.0,73,0.03,,,-99.99,Weather View 32 v70,2013-02-23 01:05:00,
2013-02-22 17:15:00,43.0,35.9,29.45,WNW,300,11.0,28.0,76,0.03,,,-99.99,Weather View 32 v70,2013-02-23 01:15:00,
2013-02-22 17:20:00,42.7,35.7,29.45,NW,306,12.0,28.0,76,0.03,,,-99.99,Weather View 32 v70,2013-02-23 01:20:00,
2013-02-22 17:30:00,42.6,36.2,29.47,NW,324,14.0,28.0,78,0.03,,,-99.99,Weather View 32 v70,2013-02-23 01:30:00,
2013-02-22 17:35:00,42.5,36.4,29.48,WNW,300,11.0,28.0,79,0.03,,,-99.99,Weather View 32 v70,2013-02-23 01:35:00,
2013-02-22 17:45:00,42.3,36.9,29.49,NW,308,15.0,28.0,81,0.02,,,-99.99,Weather View 32 v70,2013-02-23 01:45:00,
2013-02-22 17:50:00,42.2,36.8,29.50,WNW,295,10.0,28.0,81,0.02,,,-99.99,Weather View 32 v70,2013-02-23 01:50:00,
2013-02-22 17:55:00,42.1,37.0,29.49,WNW,300,10.0,28.0,82,0.02,,,-99.99,Weather View 32 v70,2013-02-23 01:55:00,
2013-02-22 18:00:00,42.2,37.1,29.49,NW,304,6.0,28.0,82,0.02,,,-99.99,Weather View 32 v70,2013-02-23 02:00:00,
2013-02-22 18:10:00,42.0,36.9,29.49,NW,308,10.0,24.0,82,0.00,,,-99.99,Weather View 32 v70,2013-02-23 02:10:00,
2013-02-22 18:15:00,42.0,36.9,29.50,WNW,301,8.0,23.0,82,0.00,,,-99.99,Weather View 32 v70,2013-02-23 02:15:00,
2013-02-22 18:25:00,42.0,36.6,29.51,NNW,328,8.0,23.0,81,0.00,,,-99.99,Weather View 32 v70,2013-02-23 02:25:00,
2013-02-22 18:30:00,41.9,36.5,29.51,NW,311,11.0,23.0,81,0.00,,,-99.99,Weather View 32 v70,2013-02-23 02:30:00,
2013-02-22 18:40:00,41.0,35.9,29.51,NW,313,7.0,23.0,82,0.00,,,-99.99,Weather View 32 v70,2013-02-23 02:40:00,
2013-02-22 18:45:00,40.9,36.1,29.52,NW,304,14.0,23.0,83,0.00,,,-99.99,Weather View 32 v70,2013-02-23 02:45:00,
2013-02-22 18:55:00,40.5,35.4,29.53,WNW,298,8.0,22.0,82,0.00,,,-99.99,Weather View 32 v70,2013-02-23 02:55:00,
2013-02-22 19:05:00,40.5,35.1,29.53,NNW,335,5.0,22.0,81,0.00,,,-99.99,Weather View 32 v70,2013-02-23 03:05:00,
2013-02-22 19:10:00,40.6,34.9,29.53,West,280,10.0,22.0,80,0.00,,,-99.99,Weather View 32 v70,2013-02-23 03:10:00,
2013-02-22 19:17:00,40.7,34.7,29.54,WNW,294,5.0,22.0,79,0.00,,,-99.99,Weather View 32 v70,2013-02-23 03:17:00,
2013-02-22 19:25:00,40.6,34.3,29.56,NNW,333,4.0,22.0,78,0.00,,,-99.99,Weather View 32 v70,2013-02-23 03:25:00,
2013-02-22 19:35:00,40.2,34.8,29.57,WNW,289,4.0,22.0,81,0.00,,,-99.99,Weather View 32 v70,2013-02-23 03:35:00,
2013-02-22 19:45:00,39.9,34.8,29.58,WNW,295,1.0,22.0,82,0.00,,,-99.99,Weather View 32 v70,2013-02-23 03:45:00,
2013-02-22 19:50:00,39.7,35.3,29.58,NNW,329,3.0,22.0,84,0.00,,,-99.99,Weather View 32 v70,2013-02-23 03:50:00,
2013-02-22 20:00:00,39.7,35.3,29.59,WNW,295,5.0,19.0,84,0.00,,,-99.99,Weather View 32 v70,2013-02-23 04:00:00,
2013-02-22 20:05:00,39.8,35.1,29.59,West,277,1.0,17.0,83,0.00,,,-99.99,Weather View 32 v70,2013-02-23 04:05:00,
2013-02-22 20:15:00,39.9,34.5,29.59,WNW,299,4.0,13.0,81,0.00,,,-99.99,Weather View 32 v70,2013-02-23 04:15:00,
2013-02-22 20:25:00,39.9,34.5,29.59,SW,227,5.0,11.0,81,0.00,,,-99.99,Weather View 32 v70,2013-02-23 04:25:00,
2013-02-22 20:35:00,39.7,34.3,29.59,NW,314,6.0,11.0,81,0.00,,,-99.99,Weather View 32 v70,2013-02-23 04:35:00,
2013-02-22 20:40:00,39.9,33.9,29.59,West,259,4.0,12.0,79,0.00,,,-99.99,Weather View 32 v70,2013-02-23 04:40:00,
2013-02-22 20:50:00,39.9,33.9,29.60,WSW,256,4.0,12.0,79,0.00,,,-99.99,Weather View 32 v70,2013-02-23 04:50:00,
2013-02-22 20:55:00,39.9,33.6,29.60,NW,318,2.0,12.0,78,0.00,,,-99.99,Weather View 32 v70,2013-02-23 04:55:00,
2013-02-22 21:00:00,39.9,33.6,29.60,SSW,203,1.0,12.0,78,0.00,,,-99.99,Weather View 32 v70,2013-02-23 05:00:00,
2013-02-22 21:05:00,39.7,33.7,29.61,WSW,258,2.0,12.0,79,0.00,,,-99.99,Weather View 32 v70,2013-02-23 05:05:00,
2013-02-22 21:10:00,39.7,33.4,29.61,SSW,203,2.0,12.0,78,0.00,,,-99.99,Weather View 32 v70,2013-02-23 05:10:00,
2013-02-22 21:15:00,39.6,33.3,29.62,SSW,203,2.0,12.0,78,0.00,,,-99.99,Weather View 32 v70,2013-02-23 05:15:00,
2013-02-22 21:18:00,39.6,33.3,29.62,SSW,203,2.0,12.0,78,0.00,,,-99.99,Weather View 32 v70,2013-02-23 05:18:00,
2013-02-22 21:25:00,39.6,33.9,29.63,SSW,203,2.0,12.0,80,0.00,,,-99.99,Weather View 32 v70,2013-02-23 05:25:00,
2013-02-22 21:35:00,39.6,33.6,29.63,SSW,203,3.0,12.0,79,0.00,,,-99.99,Weather View 32 v70,2013-02-23 05:35:00,
2013-02-22 21:45:00,39.7,34.7,29.63,South,191,6.0,11.0,82,0.00,,,-99.99,Weather View 32 v70,2013-02-23 05:45:00,
2013-02-22 21:50:00,39.7,34.3,29.63,South,191,2.0,11.0,81,0.00,,,-99.99,Weather View 32 v70,2013-02-23 05:50:00,
2013-02-22 22:00:00,39.6,34.6,29.65,South,191,1.0,11.0,82,0.00,,,-99.99,Weather View 32 v70,2013-02-23 06:00:00,
2013-02-22 22:10:00,38.9,33.9,29.65,West,281,2.0,11.0,82,0.00,,,-99.99,Weather View 32 v70,2013-02-23 06:10:00,
2013-02-22 22:15:00,39.2,34.2,29.65,SSW,197,3.0,11.0,82,0.00,,,-99.99,Weather View 32 v70,2013-02-23 06:15:00,
2013-02-22 22:20:00,39.5,34.5,29.65,SSW,192,1.0,11.0,82,0.00,,,-99.99,Weather View 32 v70,2013-02-23 06:20:00,
2013-02-22 22:30:00,39.5,35.4,29.65,SSW,196,10.0,11.0,85,0.00,,,-99.99,Weather View 32 v70,2013-02-23 06:30:00,
2013-02-22 22:40:00,39.7,36.4,29.66,SSW,192,8.0,12.0,88,0.00,,,-99.99,Weather View 32 v70,2013-02-23 06:40:00,
2013-02-22 22:45:00,39.7,36.4,29.67,SSW,203,4.0,12.0,88,0.00,,,-99.99,Weather View 32 v70,2013-02-23 06:45:00,
2013-02-22 22:55:00,39.5,35.9,29.67,South,190,4.0,12.0,87,0.00,,,-99.99,Weather View 32 v70,2013-02-23 06:55:00,
2013-02-22 23:05:00,39.6,36.3,29.68,SSW,205,1.0,12.0,88,0.00,,,-99.99,Weather View 32 v70,2013-02-23 07:05:00,
2013-02-22 23:10:00,39.5,36.2,29.68,SSW,205,2.0,12.0,88,0.00,,,-99.99,Weather View 32 v70,2013-02-23 07:10:00,
2013-02-22 23:20:00,39.5,36.2,29.69,SSW,205,0.0,12.0,88,0.00,,,-99.99,Weather View 32 v70,2013-02-23 07:20:00,
2013-02-22 23:25:00,39.5,36.5,29.69,SSW,205,1.0,12.0,89,0.00,,,-99.99,Weather View 32 v70,2013-02-23 07:25:00,
2013-02-22 23:35:00,39.5,36.8,29.69,SSW,205,0.0,12.0,90,0.00,,,-99.99,Weather View 32 v70,2013-02-23 07:35:00,
2013-02-22 23:40:00,39.5,36.8,29.69,SSW,205,0.0,11.0,90,0.00,,,-99.99,Weather View 32 v70,2013-02-23 07:40:00,
2013-02-22 23:45:00,39.5,36.8,29.69,SSW,205,0.0,9.0,90,0.00,,,-99.99,Weather View 32 v70,2013-02-23 07:45:00,
2013-02-22 23:50:00,39.5,36.8,29.69,SSW,205,0.0,9.0,90,0.00,,,-99.99,Weather View 32 v70,2013-02-23 07:50:00,
2013-02-22 23:55:00,39.5,37.1,29.69,SSW,205,1.0,9.0,91,0.00,,,-99.99,Weather View 32 v70,2013-02-23 07:55:00,